EW9844 Weather Reports


time (UTC)temp
F
wind
direction
speed
knots
gust
knots
rain 1hr
in
rain 24hr
in
rain mn
in
humidity
%
barometer
mb
20260503194521 59 134 0.0 0.9 0.00 0.02 0.02 75 701.4
20260503193112 59 130 0.0 1.7 0.00 0.02 0.02 74 701.8
20260503191509 57 117 0.0 6.1 0.00 0.02 0.02 78 702.2
20260503190007 57 113 0.0 0.9 0.00 0.02 0.02 80 702.5
20260503184507 57 128 0.0 7.0 0.00 0.02 0.02 81 702.8
20260503183004 58 145 0.0 7.0 0.00 0.02 0.02 77 703.0
20260503181502 58 135 0.0 13.0 0.00 0.02 0.02 80 703.4
20260503180100 58 137 0.0 8.7 0.00 0.02 0.02 81 703.8
20260503174618 58 132 0.0 9.6 0.00 0.02 0.02 81 703.9
20260503173131 57 121 0.0 4.3 0.00 0.02 0.02 79 703.9
20260503171556 58 127 0.0 1.7 0.00 0.02 0.02 83 704.1
20260503090107 48 114 0.0 0.0 0.00 0.02 0.01 91 703.1
20260503081600 48 110 0.0 0.0 0.00 0.02 0.01 91 703.0
20260503071608 48 134 0.0 0.0 0.01 0.02 0.01 91 703.9
20260503070103 48 137 0.0 0.0 0.00 0.01 0.00 91 704.3
20260503054552 48 138 0.0 0.0 0.00 0.01 0.01 90 705.4
20260503053039 49 139 0.0 0.0 0.00 0.01 0.01 90 705.5
20260503051546 49 133 0.0 0.0 0.00 0.01 0.01 90 705.8
20260503050037 49 120 0.0 0.0 0.00 0.01 0.01 90 705.9
20260503044537 49 119 0.0 0.0 0.00 0.01 0.01 90 706.1
20260503043036 49 119 0.0 0.0 0.00 0.01 0.01 90 706.2
20260503041536 49 157 0.0 0.0 0.00 0.01 0.01 90 706.4
20260503040035 49 160 0.0 0.0 0.00 0.01 0.01 90 706.5
20260503034533 49 156 0.0 0.0 0.00 0.01 0.01 90 706.6
20260503033039 49 155 0.0 0.0 0.00 0.01 0.01 89 706.5
20260503031536 50 155 0.0 0.0 0.00 0.01 0.01 89 706.4
20260503030034 50 156 0.0 0.0 0.00 0.01 0.01 89 706.0
20260503024535 50 156 0.0 0.0 0.00 0.01 0.01 88 705.9
20260503023027 50 156 0.0 0.0 0.00 0.01 0.01 89 705.6
20260503021527 50 153 0.0 0.0 0.00 0.01 0.01 90 705.5
20260503020026 49 155 0.0 0.0 0.00 0.01 0.01 89 705.6
20260503014524 50 138 0.0 0.0 0.00 0.01 0.01 89 705.4
20260503013032 50 137 0.0 0.0 0.00 0.01 0.01 89 705.2
20260503011522 50 138 0.0 0.0 0.00 0.01 0.01 89 704.8
20260503010022 50 138 0.0 0.0 0.00 0.01 0.01 90 704.5
20260503004521 50 137 0.0 0.0 0.00 0.01 0.01 89 704.1
20260503003027 50 137 0.0 0.0 0.00 0.01 0.01 89 704.0
20260503001520 50 132 0.0 0.0 0.00 0.01 0.01 89 703.8
20260503000022 50 132 0.0 0.0 0.00 0.01 0.01 89 703.7
20260502234521 50 132 0.0 0.0 0.00 0.01 0.01 89 703.4
20260502233019 50 130 0.0 0.0 0.00 0.01 0.01 88 703.0
20260502231524 50 104 0.0 0.0 0.00 0.01 0.01 88 702.8
20260502230017 51 128 0.0 0.9 0.00 0.01 0.01 87 702.4
20260502224516 51 112 0.0 0.0 0.00 0.01 0.01 86 702.2
20260502223015 52 122 0.0 0.9 0.00 0.01 0.01 85 702.2
20260502221516 53 89 0.0 1.7 0.00 0.01 0.01 83 702.0
20260502220020 54 131 0.0 6.1 0.00 0.01 0.01 80 701.8
20260502214517 55 102 0.0 3.5 0.00 0.01 0.01 78 701.7
20260502213032 55 76 0.0 9.6 0.00 0.01 0.01 79 701.6
20260502211518 56 92 0.0 9.6 0.00 0.01 0.01 74 701.6
20260502210013 58 96 1.7 13.0 0.00 0.01 0.01 74 701.7
20260502204510 57 84 0.0 9.6 0.00 0.01 0.01 71 701.8
20260502203009 58 96 0.9 9.6 0.00 0.01 0.01 67 702.1
20260502201522 56 100 0.9 12.2 0.00 0.01 0.01 74 702.3
20260502200007 55 90 0.9 15.6 0.00 0.01 0.01 71 702.6